This is the latest recevied weather packets stored in our database for station/object KE9DBJ-13. If no packets are shown the sender has not sent any weather packets the latest 10 day(s).
| Time | Temp. | Humidity | Pressure | Rain* | Wind** | Luminosity | Snow |
|---|---|---|---|---|---|---|---|
| 1777639202 | 8.89° C | 91% | 1012.7 hPa | 0 mm | - | - | - |
| 1777638602 | 8.89° C | 94% | 1012.4 hPa | 0 mm | - | - | - |
| 1777638002 | 8.33° C | 97% | 1012.4 hPa | 0 mm | - | - | - |
| 1777637402 | 8.33° C | 95% | 1012.6 hPa | 0 mm | - | - | - |
| 1777636802 | 7.78° C | 96% | 1012.5 hPa | 0 mm | - | - | - |
| 1777636202 | 7.22° C | 96% | 1012.5 hPa | 0 mm | - | - | - |
| 1777635602 | 7.22° C | 97% | 1012.5 hPa | 0 mm | - | - | - |
| 1777635002 | 7.22° C | 98% | 1012.5 hPa | 0 mm | - | - | - |
| 1777634402 | 6.67° C | 99% | 1012.5 hPa | 0 mm | - | - | - |
| 1777633802 | 6.67° C | 99% | 1012.4 hPa | 0 mm | - | - | - |
| 1777633203 | 6.11° C | 99% | 1012.6 hPa | 0 mm | - | - | - |
| 1777632603 | 6.11° C | 99% | 1012.6 hPa | 0 mm | - | - | - |
| 1777632003 | 6.11° C | 99% | 1012.7 hPa | 0 mm | - | - | - |
| 1777631403 | 5.56° C | 99% | 1012.8 hPa | 0 mm | - | - | - |
| 1777630803 | 5.56° C | 99% | 1013 hPa | 0 mm | - | - | - |
| 1777630203 | 5.56° C | 99% | 1013 hPa | 0 mm | - | - | - |
| 1777629603 | 5.56° C | 99% | 1013.1 hPa | 0 mm | - | - | - |
| 1777629003 | 5.56° C | 99% | 1013.1 hPa | 0 mm | - | - | - |
| 1777628403 | 5° C | 99% | 1013.3 hPa | 0 mm | - | - | - |
| 1777627803 | 5° C | 99% | 1013.4 hPa | 0 mm | - | - | - |
| 1777627203 | 5° C | 99% | 1013.4 hPa | 0 mm | - | - | - |
| 1777626603 | 5° C | 99% | 1013.4 hPa | 0 mm | - | - | - |
| 1777626002 | 5° C | 99% | 1013.6 hPa | 0 mm | - | - | - |
| 1777625403 | 4.44° C | 99% | 1013.5 hPa | 0 mm | - | - | - |
| 1777624802 | 5° C | 99% | 1013.7 hPa | 0 mm | - | - | - |
* Rain latest hour (hover to see other rain measurements)
** Current wind speed in m/s (hover to see current wind gust speed)